Home   Weather   Moers   Past weeks

Flag for Germany Past Weather in Moers, North Rhine-Westphalia, Germany — Yesterday and Last 2 Weeks

Now
45 °F

Clear.


Feels Like: 41 °F
Forecast: 35 / 53 °F
Wind: 7 mph from Northwest

Location: Duesseldorf

Current Time: Apr 28, 2017 at 11:58:23 pm

Latest Report: Apr 28, 2017 at 11:20 pm


Visibility: 10 mi

Pressure: 30.01 "Hg

Humidity: 71%

Dew Point: 36 °F

Location of MoersLocation

Past Weather in Moers — Graph

°F

Moers Temperature Yesterday

Maximum temperature yesterday: 54 °F (at 3:20 pm)
Minimum temperature yesterday: 30 °F (at 4:50 am)
Average temperature yesterday: 44 °F

High & Low Weather Summary for the Past Weeks

 TemperatureHumidityPressure
High59 °F (Apr 21, 3:20 pm)100% (Apr 14, 5:50 am)30.63 "Hg (Apr 14, 5:50 am)
Low27 °F (Apr 20, 4:50 am)30% (Apr 20, 5:20 pm)29.71 "Hg (Apr 25, 12:50 am)
Average45 °F68%30.14 "Hg
* Reported Apr 13 10:20 pm — Apr 28 10:50 pm, Moers, Weather by CustomWeather, © 2017

Note: Actual official high and low records may vary slightly from our data, if they occured in-between our weather recording intervals... More about our weather records

Advertising

Moers Weather History for the Previous 24 Hours

Scroll right to see more
 ConditionsComfort  
Time TempWeatherWind HumidityBarometerVisibility
10:50 pm
Fri, Apr 28
46 °FClear.8 mph66%30.01 "Hg10 mi
10:20 pm46 °FPassing clouds.6 mph66%30.01 "HgN/A
9:50 pm48 °FPassing clouds.8 mph62%29.98 "HgN/A
9:20 pm48 °FPassing clouds.7 mph66%29.98 "HgN/A
8:50 pm50 °FPartly cloudy.3 mph67%29.98 "HgN/A
8:20 pm50 °FSprinkles. Partly sunny.5 mph67%29.98 "HgN/A
7:50 pm50 °FSprinkles. Partly sunny.3 mph67%29.98 "HgN/A
7:20 pm50 °FPartly sunny.5 mph67%29.95 "HgN/A
6:50 pm52 °FBroken clouds.6 mph62%29.95 "HgN/A
6:20 pm52 °FPartly sunny.8 mph62%29.95 "HgN/A
5:50 pm52 °FScattered showers. Partly sunny.6 mph62%29.95 "HgN/A
5:20 pm50 °FScattered showers. Broken clouds.6 mph71%29.95 "HgN/A
4:50 pm50 °FScattered showers. Partly sunny.10 mph67%29.95 "HgN/A
4:20 pm52 °FScattered showers. Broken clouds.10 mph58%29.95 "HgN/A
3:50 pm54 °FScattered clouds.7 mph58%29.92 "HgN/A
3:20 pm54 °FScattered clouds.3 mph54%29.95 "HgN/A
2:50 pm52 °FPartly sunny.7 mph62%29.95 "HgN/A
2:20 pm48 °FBroken clouds.9 mph66%29.95 "HgN/A
1:50 pm48 °FBroken clouds.8 mph66%29.95 "HgN/A
1:20 pm48 °FPartly sunny.8 mph66%29.95 "HgN/A
12:50 pm48 °FPartly sunny.8 mph66%29.95 "HgN/A
12:20 pm46 °FBroken clouds.8 mph71%29.95 "HgN/A
11:50 am46 °FBroken clouds.9 mph71%29.95 "HgN/A
11:20 am46 °FPartly sunny.8 mph66%29.95 "HgN/A
10:50 am45 °FPartly sunny.9 mph71%29.95 "HgN/A
10:20 am45 °FPartly sunny.8 mph66%29.95 "HgN/A
9:50 am45 °FPartly sunny.9 mph66%29.95 "HgN/A
9:20 am43 °FPartly sunny.8 mph71%29.95 "HgN/A
8:50 am43 °FBroken clouds.8 mph71%29.95 "HgN/A
8:20 am43 °FBroken clouds.8 mph71%29.95 "HgN/A
7:50 am41 °FPartly sunny.7 mph76%29.95 "HgN/A
7:20 am39 °FPartly sunny.6 mph81%29.95 "HgN/A
6:50 am36 °FScattered clouds.5 mph87%29.95 "HgN/A
6:20 am34 °FSunny.6 mph87%29.95 "Hg10 mi
5:50 am36 °FPassing clouds.3 mph87%29.95 "HgN/A
5:20 am34 °FClear.5 mph87%29.95 "Hg10 mi
4:50 am34 °FClear.3 mph93%29.95 "Hg10 mi
4:20 am34 °FClear.2 mph93%29.95 "Hg10 mi
3:50 am34 °FClear.1 mph93%29.95 "Hg10 mi
3:20 am36 °FClear.2 mph93%29.98 "Hg10 mi
2:50 am36 °FClear.2 mph93%29.98 "Hg10 mi
2:20 am37 °FClear.2 mph87%29.98 "Hg10 mi
1:50 am39 °FClear.5 mph81%29.98 "Hg10 mi
1:20 am41 °FPassing clouds.3 mph81%29.98 "HgN/A
12:50 am41 °FClear.5 mph81%29.98 "Hg10 mi
12:20 am43 °FClear.3 mph76%29.98 "Hg10 mi
11:50 pm
Thu, Apr 27
43 °FPassing clouds.6 mph76%29.98 "HgN/A
11:20 pm45 °FPassing clouds.3 mph71%29.98 "HgN/A
Weather by CustomWeather, © 2017

See weather overviewHow to use our weather pages